Location: Katowice
(50.2611°N, 19.0242°E)
Time: 02:33:13
(UTC+02:00)

A-11 Canister half - Pass Details

Date: 22 July 2019
Orbit: 1526 x 1683 km, 47.3° (Epoch: 23 August)

Event Time Altitude Azimuth Distance (km) Brightness Sun altitude
Rises 02:16:57 0° 284° (WNW) 4,853 11.5 -16.8°
Reaches altitude 10° 02:20:11 10° 280° (W) 3,844 11.0 -16.6°
Maximum altitude 02:29:34 55° 207° (SSW) 1,849 9.0 -16.0°
Drops below altitude 10° 02:38:38 10° 133° (SE) 3,722 10.9 -15.4°
Sets 02:41:43 0° 129° (SE) 4,690 11.4 -15.2°
